Location: Unspecified
(37.2150°N, 0.0000°E)
Time: 05:01:48
(UTC+00:00)

OTV 5 (USA 277) - Visible Passes

Search period start: 16 October 2019 00:00
Search period end: 26 October 2019 00:00
Orbit: 310 x 324 km, 54.5° (Epoch: 08 October)

Date Brightness Start Highest point End Pass type
(mag) Time Alt. Az. Time Alt. Az. Time Alt. Az.
16 Oct ? 05:41:00 10° N 05:42:37 14° NNE 05:44:14 10° ENE visible
18 Oct ? 04:37:01 10° NNE 04:37:18 10° NNE 04:37:34 10° NE visible
19 Oct ? 04:50:31 14° N 04:52:07 21° NE 04:54:18 10° E visible
20 Oct ? 05:05:08 20° NNW 05:06:47 60° NE 05:09:28 10° SE visible
21 Oct ? 05:19:54 20° WNW 05:21:17 35° SW 05:23:48 10° SSE visible
22 Oct ? 04:03:51 12° ESE 04:03:51 12° ESE 04:04:06 10° ESE visible
22 Oct ? 05:34:48 11° WSW 05:35:37 12° SW 05:36:42 10° SSW visible
